Вернуться в каталог

ATLAS 5 CENTAUR DEB

LostHEO
NORAD 46605·DEBRIS·🇺🇸 United States

Запущен Oct 17, 2018 с Cape Canaveral Space Force Station

Loading…

Ближайшие Пролёты (ближайшие 24 часа)

TLE

УстаревшееSource: Space-Track

Эпоха: Aug 2, 2025, 19:30 UTC

1 46605U 18079CD  25214.81309191 -.00000155  00000-0  00000-0 0  9994
2 46605  12.6842  58.3574 4447705 282.5578  32.4732  1.91614113 41773

Отслеживайте ATLAS 5 CENTAUR DEB в реальном времени с AllMySat

Download on the App Store